K2MST Weather Reports


time (UTC)temp
C
wind
direction
speed
KPH
gust
KPH
rain 1hr
cm
rain 24hr
cm
rain mn
cm
humidity
%
barometer
mb
20260507135018 8 293 6.4 17.7 0.00 0.33 0.00 54 1011.0
20260507134058 8 338 6.4 17.7 0.00 0.38 0.00 54 1011.0
20260507133018 8 293 4.8 8.0 0.00 0.43 0.00 55 1011.0
20260507132018 8 315 4.8 9.7 0.00 0.48 0.00 54 1010.9
20260507131018 8 270 4.8 9.7 0.00 0.53 0.00 56 1010.9
20260507130018 7 23 8.0 16.1 0.00 0.61 0.00 57 1011.2
20260507125018 7 338 6.4 14.5 0.00 0.69 0.00 59 1011.2
20260507124018 7 338 6.4 14.5 0.00 0.74 0.00 63 1011.1
20260507123018 7 338 6.4 14.5 0.00 0.79 0.00 62 1011.0
20260507122018 7 293 6.4 14.5 0.00 0.84 0.00 62 1011.0
20260507121018 7 293 4.8 9.7 0.00 0.89 0.00 62 1011.0
20260507120018 7 248 1.6 8.0 0.00 0.91 0.00 64 1010.8
20260507115017 7 225 1.6 6.4 0.00 0.94 0.00 70 1010.9
20260507114018 6 0.0 3.2 0.00 0.94 0.00 74 1011.0
20260507113017 6 0.0 1.6 0.00 0.97 0.00 76 1010.9
20260507112018 5 0.0 1.6 0.00 0.99 0.00 78 1010.8
20260507111017 5 203 3.2 6.4 0.00 1.04 0.00 79 1010.7
20260507110018 4 203 3.2 6.4 0.00 1.12 0.00 80 1010.5
20260507105037 3 158 3.2 8.0 0.00 1.17 0.00 81 1010.4
20260507104018 3 180 3.2 6.4 0.00 1.22 0.00 81 1010.5
20260507103017 3 158 3.2 4.8 0.00 1.24 0.00 82 1010.5
20260507102038 2 158 1.6 3.2 0.00 1.27 0.00 82 1010.3
20260507101038 2 158 1.6 3.2 0.00 1.30 0.00 82 1010.3
20260507100037 2 158 1.6 3.2 0.00 1.30 0.00 81 1010.3
20260507095017 2 158 1.6 3.2 0.00 1.32 0.00 81 1010.3
20260507094017 3 0.0 1.6 0.00 1.35 0.00 80 1010.3
20260507093017 3 158 1.6 3.2 0.00 1.37 0.00 80 1010.1
20260507092017 3 158 1.6 3.2 0.00 1.40 0.00 79 1010.1
20260507091017 3 0.0 3.2 0.00 1.42 0.00 79 1010.4
20260507090017 3 0.0 0.0 0.00 1.45 0.00 79 1010.5
20260507085037 4 225 1.6 4.8 0.00 1.45 0.00 77 1010.4
20260507084017 5 0.0 3.2 0.00 1.47 0.00 76 1010.4
20260507083017 5 248 1.6 8.0 0.00 1.50 0.00 76 1010.5
20260507082017 5 293 1.6 6.4 0.00 1.52 0.00 77 1010.6
20260507081017 5 248 1.6 4.8 0.00 1.55 0.00 78 1010.5
20260507080019 5 0.0 3.2 0.00 1.55 0.00 76 1010.4
20260507075019 5 0.0 3.2 0.00 1.57 0.00 76 1010.3
20260507074019 6 0.0 4.8 0.00 1.57 0.00 75 1010.4
20260507073019 6 248 1.6 3.2 0.00 1.57 0.00 76 1010.2
20260507072019 6 0.0 3.2 0.00 1.57 0.00 76 1010.1
20260507071039 6 248 1.6 4.8 0.00 1.57 0.00 75 1010.2
20260507070039 6 248 3.2 4.8 0.00 1.57 0.00 73 1010.2
20260507065018 6 248 3.2 8.0 0.00 1.57 0.00 72 1010.3
20260507064018 6 293 3.2 8.0 0.00 1.57 0.00 71 1010.3
20260507063018 6 293 6.4 14.5 0.00 1.57 0.00 73 1010.4
20260507062020 6 293 6.4 9.7 0.00 1.57 0.00 74 1010.4
20260507061018 6 293 6.4 12.9 0.00 1.57 0.00 75 1010.5
20260507060039 6 293 6.4 16.1 0.00 1.60 0.00 77 1010.6
20260507055018 6 293 6.4 9.7 0.00 1.63 0.00 79 1010.5
20260507054018 6 293 6.4 11.3 0.00 1.63 0.00 79 1010.4
20260507053018 7 293 4.8 9.7 0.00 1.63 0.00 79 1010.5
20260507052018 7 270 4.8 11.3 0.00 1.63 0.00 81 1010.5
20260507051018 7 293 4.8 11.3 0.00 1.63 0.00 81 1010.5
20260507050018 7 293 6.4 16.1 0.00 1.63 0.00 82 1010.4
20260507045018 7 293 6.4 17.7 0.00 1.63 0.00 84 1010.2
20260507044038 7 293 6.4 12.9 0.00 1.63 0.00 84 1010.4
20260507043018 7 293 8.0 16.1 0.00 1.63 0.00 84 1010.2
20260507042038 7 293 6.4 12.9 0.00 1.63 0.00 85 1010.0
20260507041018 7 293 8.0 17.7 0.00 1.63 0.00 85 1009.9
20260507040018 7 315 4.8 14.5 0.00 1.63 1.63 86 1009.8
20260507035038 8 338 4.8 12.9 0.00 1.63 1.63 85 1009.7
20260507034018 8 315 1.6 4.8 0.00 1.65 1.63 86 1009.7
20260507033019 8 293 3.2 8.0 0.00 1.68 1.63 85 1009.6
20260507032018 8 315 1.6 6.4 0.00 1.70 1.63 86 1009.7
20260507031018 8 315 1.6 4.8 0.00 1.73 1.63 86 1009.6
20260507030018 8 248 1.6 3.2 0.00 1.75 1.63 85 1009.7
20260507025018 7 0.0 1.6 0.00 1.78 1.63 86 1009.6
20260507024038 7 0.0 3.2 0.00 1.80 1.63 86 1009.6
20260507023018 7 0.0 1.6 0.00 1.83 1.63 86 1009.7
20260507022058 7 248 1.6 3.2 0.00 1.88 1.63 86 1009.8
20260507021018 7 0.0 0.0 0.00 1.96 1.63 87 1009.6
20260507020038 7 0.0 1.6 0.00 1.98 1.63 87 1009.8
20260507015018 7 0.0 3.2 0.00 2.03 1.63 87 1009.8
20260507014018 7 0.0 3.2 0.00 2.03 1.63 87 1009.8
20260507013017 7 180 1.6 3.2 0.00 2.03 1.63 86 1009.7
20260507012018 7 0.0 0.0 0.00 2.06 1.63 86 1009.6
20260507010017 7 0.0 1.6 0.00 2.11 1.63 85 1009.5
20260507005038 7 225 1.6 3.2 0.00 2.11 1.63 85 1009.6
20260507004017 7 225 1.6 3.2 0.00 2.11 1.63 84 1009.5
20260507003017 8 0.0 3.2 0.00 2.13 1.63 83 1009.3
20260507002017 8 270 1.6 3.2 0.00 2.13 1.63 84 1009.3
20260507001017 8 315 1.6 3.2 0.00 2.13 1.63 83 1009.2
20260507000017 8 248 1.6 4.8 0.00 2.13 1.63 84 1008.9
20260506235037 8 248 3.2 8.0 0.00 2.13 1.63 85 1009.1
20260506234017 8 225 1.6 3.2 0.00 2.13 1.63 82 1008.6
20260506233017 8 293 4.8 11.3 0.00 2.13 1.63 82 1008.8
20260506232017 8 225 1.6 4.8 0.00 2.13 1.63 84 1008.2
20260506231037 8 225 1.6 4.8 0.00 2.13 1.63 83 1007.9
20260506230037 8 225 3.2 6.4 0.00 2.13 1.63 82 1008.0
20260506225018 8 315 1.6 6.4 0.00 2.13 1.63 82 1008.1
20260506224017 8 248 1.6 6.4 0.00 2.13 1.63 82 1008.2
20260506223017 8 293 4.8 8.0 0.00 2.13 1.63 82 1008.4
20260506222017 8 293 4.8 8.0 0.00 2.13 1.63 82 1008.6
20260506221017 8 293 4.8 14.5 0.00 2.13 1.63 81 1008.6
20260506220037 8 293 4.8 11.3 0.00 2.13 1.63 82 1008.4
20260506215017 8 293 4.8 8.0 0.00 2.13 1.63 82 1008.3
20260506214017 8 293 8.0 12.9 0.00 2.13 1.63 82 1008.1
20260506213037 8 293 4.8 9.7 0.00 2.13 1.63 83 1008.2
20260506212039 8 315 4.8 11.3 0.00 2.13 1.63 83 1008.0
20260506211019 8 293 6.4 16.1 0.00 2.24 1.63 84 1008.1
20260506210019 8 293 8.0 17.7 0.00 2.26 1.63 85 1008.0
20260506205019 8 315 6.4 16.1 0.00 2.26 1.63 85 1007.8
20260506204018 8 293 8.0 17.7 0.00 2.31 1.63 86 1007.7
20260506203019 8 315 6.4 16.1 0.00 2.31 1.63 86 1007.6
20260506202019 8 338 6.4 11.3 0.00 2.31 1.63 86 1007.4
20260506201018 7 338 4.8 14.5 0.00 2.31 1.63 87 1007.4
20260506200019 7 338 9.7 17.7 0.00 2.31 1.63 87 1007.4
20260506195018 7 293 8.0 17.7 0.00 2.31 1.63 88 1007.5
20260506194018 7 293 8.0 19.3 0.00 2.31 1.63 88 1007.5
20260506193018 7 293 6.4 16.1 0.00 2.31 1.63 89 1007.5
20260506192018 8 293 6.4 11.3 0.00 2.31 1.63 89 1007.2
20260506191018 8 293 4.8 9.7 0.00 2.31 1.63 89 1007.1
20260506190019 8 293 6.4 14.5 0.03 2.31 1.63 89 1007.0
20260506185018 7 293 4.8 9.7 0.03 2.31 1.63 89 1007.2
20260506184018 7 315 8.0 16.1 0.03 2.31 1.63 89 1007.0
20260506183018 8 338 8.0 16.1 0.03 2.36 1.63 90 1006.9
20260506182018 8 315 8.0 16.1 0.03 2.39 1.63 89 1006.7
20260506181018 8 315 6.4 12.9 0.03 2.46 1.63 90 1006.6
20260506180018 8 338 6.4 16.1 0.00 2.46 1.60 89 1006.4
20260506175038 8 338 3.2 11.3 0.00 2.46 1.60 89 1006.3
20260506174020 8 293 4.8 11.3 0.00 2.46 1.60 90 1006.4
20260506173058 8 338 4.8 8.0 0.03 2.46 1.60 89 1006.3
20260506172018 8 315 3.2 6.4 0.03 2.46 1.60 89 1006.1
20260506171018 8 338 3.2 8.0 0.05 2.46 1.60 90 1006.1
20260506170018 8 338 3.2 8.0 0.08 2.46 1.60 90 1006.1
20260506165018 7 338 6.4 11.3 0.13 2.46 1.60 90 1006.1
20260506164018 7 338 3.2 6.4 0.18 2.46 1.60 91 1006.3
20260506163038 7 315 4.8 8.0 0.15 2.44 1.57 90 1006.4
20260506162038 7 293 3.2 9.7 0.18 2.44 1.57 90 1006.3
20260506161018 7 338 4.8 9.7 0.18 2.41 1.55 90 1006.4
20260506160018 7 338 6.4 9.7 0.15 2.39 1.52 90 1006.5
20260506155018 7 315 4.8 11.3 0.10 2.34 1.47 90 1006.6
20260506154018 7 338 3.2 8.0 0.08 2.29 1.42 90 1006.6
20260506153017 7 338 3.2 6.4 0.08 2.29 1.42 89 1006.8
20260506152018 7 338 1.6 3.2 0.08 2.26 1.40 89 1006.4
20260506151018 7 23 3.2 4.8 0.05 2.24 1.37 89 1006.5
20260506150037 7 0 1.6 4.8 0.08 2.24 1.37 89 1006.2
20260506145058 7 45 3.2 9.7 0.08 2.24 1.37 89 1006.0
20260506144017 7 45 4.8 8.0 0.10 2.21 1.35 89 1006.1
20260506143018 7 0.0 3.2 0.15 2.21 1.35 90 1006.1
20260506142017 7 0 4.8 6.4 0.18 2.18 1.32 90 1006.2
20260506141017 7 338 3.2 6.4 0.23 2.18 1.32 90 1006.3
20260506140017 7 23 4.8 9.7 0.28 2.16 1.30 90 1006.3